Year,Month,Day,Hour,Minute,Value (Times are PST for temperature in C)
2021,06,30,00,00,19.10
2021,06,30,00,01,19.20
2021,06,30,00,02,19.20
2021,06,30,00,03,19.20
2021,06,30,00,04,19.20
2021,06,30,00,05,19.20
2021,06,30,00,06,19.20
2021,06,30,00,07,19.30
2021,06,30,00,08,19.30
2021,06,30,00,09,19.30
2021,06,30,00,10,19.30
2021,06,30,00,11,19.30
2021,06,30,00,12,19.40
2021,06,30,00,13,19.40
2021,06,30,00,14,19.40
2021,06,30,00,15,19.50
2021,06,30,00,16,19.50
2021,06,30,00,17,19.50
2021,06,30,00,18,19.60
2021,06,30,00,19,19.50
2021,06,30,00,20,19.50
2021,06,30,00,21,19.50
2021,06,30,00,22,19.50
2021,06,30,00,23,19.50
2021,06,30,00,24,19.50
2021,06,30,00,25,19.50
2021,06,30,00,26,19.50
2021,06,30,00,27,19.50
2021,06,30,00,28,19.60
2021,06,30,00,29,19.60
2021,06,30,00,30,19.60
2021,06,30,00,31,19.50
2021,06,30,00,32,19.50
2021,06,30,00,33,19.40
2021,06,30,00,34,19.40
2021,06,30,00,35,19.30
2021,06,30,00,36,19.20
2021,06,30,00,37,19.10
2021,06,30,00,38,19.10
2021,06,30,00,39,19.00
2021,06,30,00,40,18.90
2021,06,30,00,41,18.90
2021,06,30,00,42,18.80
2021,06,30,00,43,18.80
2021,06,30,00,44,18.70
2021,06,30,00,45,18.70
2021,06,30,00,46,18.70
2021,06,30,00,47,18.70
2021,06,30,00,48,18.60
2021,06,30,00,49,18.50
2021,06,30,00,50,18.50
2021,06,30,00,51,18.40
2021,06,30,00,52,18.40
2021,06,30,00,53,18.40
2021,06,30,00,54,18.30
2021,06,30,00,55,18.30
2021,06,30,00,56,18.30
2021,06,30,00,57,18.20
2021,06,30,00,58,18.20
2021,06,30,00,59,18.20
2021,06,30,01,00,18.10
2021,06,30,01,01,18.10
2021,06,30,01,02,18.10
2021,06,30,01,03,18.00
2021,06,30,01,04,18.00
2021,06,30,01,05,17.90
2021,06,30,01,06,17.90
2021,06,30,01,07,17.80
2021,06,30,01,08,17.70
2021,06,30,01,09,17.70
2021,06,30,01,10,17.70
2021,06,30,01,11,17.60
2021,06,30,01,12,17.60
2021,06,30,01,13,17.60
2021,06,30,01,14,17.60
2021,06,30,01,15,17.70
2021,06,30,01,16,17.70
2021,06,30,01,17,17.70
2021,06,30,01,18,17.70
2021,06,30,01,19,17.70
2021,06,30,01,20,17.70
2021,06,30,01,21,17.80
2021,06,30,01,22,17.80
2021,06,30,01,23,17.80
2021,06,30,01,24,17.80
2021,06,30,01,25,17.80
2021,06,30,01,26,17.80
2021,06,30,01,27,17.80
2021,06,30,01,28,17.80
2021,06,30,01,29,17.80
2021,06,30,01,30,17.80
2021,06,30,01,31,17.70
2021,06,30,01,32,17.80
2021,06,30,01,33,17.70
2021,06,30,01,34,17.70
2021,06,30,01,35,17.80
2021,06,30,01,36,17.80
2021,06,30,01,37,17.80
2021,06,30,01,38,17.80
2021,06,30,01,39,17.80
2021,06,30,01,40,17.80
2021,06,30,01,41,17.80
2021,06,30,01,42,17.80
2021,06,30,01,43,17.80
2021,06,30,01,44,17.90
2021,06,30,01,45,17.90
2021,06,30,01,46,17.90
2021,06,30,01,47,17.90
2021,06,30,01,48,18.00
2021,06,30,01,49,18.00
2021,06,30,01,50,18.00
2021,06,30,01,51,18.10
2021,06,30,01,52,18.10
2021,06,30,01,53,18.20
2021,06,30,01,54,18.20
2021,06,30,01,55,18.20
2021,06,30,01,56,18.30
2021,06,30,01,57,18.30
2021,06,30,01,58,18.30
2021,06,30,01,59,18.30
2021,06,30,02,00,18.30
2021,06,30,02,01,18.30
2021,06,30,02,02,18.20
2021,06,30,02,03,18.20
2021,06,30,02,04,18.10
2021,06,30,02,05,18.00
2021,06,30,02,06,18.00
2021,06,30,02,07,17.90
2021,06,30,02,08,17.80
2021,06,30,02,09,17.80
2021,06,30,02,10,17.70
2021,06,30,02,11,17.70
2021,06,30,02,12,17.60
2021,06,30,02,13,17.60
2021,06,30,02,14,17.50
2021,06,30,02,15,17.50
2021,06,30,02,16,17.40
2021,06,30,02,17,17.40
2021,06,30,02,18,17.40
2021,06,30,02,19,17.40
2021,06,30,02,20,17.40
2021,06,30,02,21,17.40
2021,06,30,02,22,17.40
2021,06,30,02,23,17.50
2021,06,30,02,24,17.50
2021,06,30,02,25,17.50
2021,06,30,02,26,17.50
2021,06,30,02,27,17.50
2021,06,30,02,28,17.40
2021,06,30,02,29,17.40
2021,06,30,02,30,17.40
2021,06,30,02,31,17.40
2021,06,30,02,32,17.30
2021,06,30,02,33,17.30
2021,06,30,02,34,17.20
2021,06,30,02,35,17.20
2021,06,30,02,36,17.10
2021,06,30,02,37,17.10
2021,06,30,02,38,17.00
2021,06,30,02,39,17.00
2021,06,30,02,40,16.90
2021,06,30,02,41,16.90
2021,06,30,02,42,16.90
2021,06,30,02,43,16.90
2021,06,30,02,44,16.90
2021,06,30,02,45,16.80
2021,06,30,02,46,16.80
2021,06,30,02,47,16.80
2021,06,30,02,48,16.70
2021,06,30,02,49,16.70
2021,06,30,02,50,16.70
2021,06,30,02,51,16.60
2021,06,30,02,52,16.60
2021,06,30,02,53,16.40
2021,06,30,02,54,16.30
2021,06,30,02,55,16.20
2021,06,30,02,56,16.10
2021,06,30,02,57,16.00
2021,06,30,02,58,16.00
2021,06,30,02,59,15.90
2021,06,30,03,00,15.90
2021,06,30,03,01,15.80
2021,06,30,03,02,15.80
2021,06,30,03,03,15.80
2021,06,30,03,04,15.80
2021,06,30,03,05,15.80
2021,06,30,03,06,15.80
2021,06,30,03,07,15.80
2021,06,30,03,08,15.80
2021,06,30,03,09,15.80
2021,06,30,03,10,15.80
2021,06,30,03,11,15.80
2021,06,30,03,12,15.80
2021,06,30,03,13,15.80
2021,06,30,03,14,15.80
2021,06,30,03,15,15.80
2021,06,30,03,16,15.80
2021,06,30,03,17,15.80
2021,06,30,03,18,15.80
2021,06,30,03,19,15.70
2021,06,30,03,20,15.60
2021,06,30,03,21,15.60
2021,06,30,03,22,15.50
2021,06,30,03,23,15.50
2021,06,30,03,24,15.50
2021,06,30,03,25,15.50
2021,06,30,03,26,15.50
2021,06,30,03,27,15.50
2021,06,30,03,28,15.50
2021,06,30,03,29,15.60
2021,06,30,03,30,15.60
2021,06,30,03,31,15.70
2021,06,30,03,32,15.70
2021,06,30,03,33,15.80
2021,06,30,03,34,15.80
2021,06,30,03,35,15.80
2021,06,30,03,36,15.90
2021,06,30,03,37,15.90
2021,06,30,03,38,16.00
2021,06,30,03,39,16.00
2021,06,30,03,40,16.10
2021,06,30,03,41,16.10
2021,06,30,03,42,16.10
2021,06,30,03,43,16.10
2021,06,30,03,44,16.00
2021,06,30,03,45,16.00
2021,06,30,03,46,15.90
2021,06,30,03,47,15.90
2021,06,30,03,48,15.90
2021,06,30,03,49,15.90
2021,06,30,03,50,15.90
2021,06,30,03,51,15.90
2021,06,30,03,52,15.90
2021,06,30,03,53,15.90
2021,06,30,03,54,15.90
2021,06,30,03,55,15.90
2021,06,30,03,56,15.90
2021,06,30,03,57,15.90
2021,06,30,03,58,15.90
2021,06,30,03,59,15.90
2021,06,30,04,00,15.90
2021,06,30,04,01,15.90
2021,06,30,04,02,15.90
2021,06,30,04,03,15.90
2021,06,30,04,04,15.90
2021,06,30,04,05,15.90
2021,06,30,04,06,15.90
2021,06,30,04,07,15.90
2021,06,30,04,08,15.90
2021,06,30,04,09,16.00
2021,06,30,04,10,15.90
2021,06,30,04,11,15.90
2021,06,30,04,12,15.90
2021,06,30,04,13,15.90
2021,06,30,04,14,15.90
2021,06,30,04,15,15.90
2021,06,30,04,16,15.90
2021,06,30,04,17,15.90
2021,06,30,04,18,15.90
2021,06,30,04,19,15.90
2021,06,30,04,20,15.90
2021,06,30,04,21,15.90
2021,06,30,04,22,15.90
2021,06,30,04,23,15.90
2021,06,30,04,24,15.90
2021,06,30,04,25,16.00
2021,06,30,04,26,16.00
2021,06,30,04,27,16.00
2021,06,30,04,28,16.10
2021,06,30,04,29,16.10
2021,06,30,04,30,16.10
2021,06,30,04,31,16.10
2021,06,30,04,32,16.20
2021,06,30,04,33,16.10
2021,06,30,04,34,16.10
2021,06,30,04,35,16.20
2021,06,30,04,36,16.20
2021,06,30,04,37,16.20
2021,06,30,04,38,16.20
2021,06,30,04,39,16.20
2021,06,30,04,40,16.20
2021,06,30,04,41,16.30
2021,06,30,04,42,16.30
2021,06,30,04,43,16.30
2021,06,30,04,44,16.30
2021,06,30,04,45,16.40
2021,06,30,04,46,16.40
2021,06,30,04,47,16.40
2021,06,30,04,48,16.40
2021,06,30,04,49,16.40
2021,06,30,04,50,16.40
2021,06,30,04,51,16.40
2021,06,30,04,52,16.40
2021,06,30,04,53,16.40
2021,06,30,04,54,16.40
2021,06,30,04,55,16.40
2021,06,30,04,56,16.40
2021,06,30,04,57,16.40
2021,06,30,04,58,16.50
2021,06,30,04,59,16.50
2021,06,30,05,00,16.40
2021,06,30,05,01,16.40
2021,06,30,05,02,16.40
2021,06,30,05,03,16.40
2021,06,30,05,04,16.50
2021,06,30,05,05,16.50
2021,06,30,05,06,16.50
2021,06,30,05,07,16.50
2021,06,30,05,08,16.50
2021,06,30,05,09,16.50
2021,06,30,05,10,16.40
2021,06,30,05,11,16.40
2021,06,30,05,12,16.40
2021,06,30,05,13,16.40
2021,06,30,05,14,16.40
2021,06,30,05,15,16.50
2021,06,30,05,16,16.40
2021,06,30,05,17,16.40
2021,06,30,05,18,16.50
2021,06,30,05,19,16.50
2021,06,30,05,20,16.50
2021,06,30,05,21,16.50
2021,06,30,05,22,16.50
2021,06,30,05,23,16.60
2021,06,30,05,24,16.60
2021,06,30,05,25,16.60
2021,06,30,05,26,16.60
2021,06,30,05,27,16.60
2021,06,30,05,28,16.60
2021,06,30,05,29,16.60
2021,06,30,05,30,16.60
2021,06,30,05,31,16.60
2021,06,30,05,32,16.60
2021,06,30,05,33,16.60
2021,06,30,05,34,16.60
2021,06,30,05,35,16.60
2021,06,30,05,36,16.60
2021,06,30,05,37,16.60
2021,06,30,05,38,16.60
2021,06,30,05,39,16.60
2021,06,30,05,40,16.60
2021,06,30,05,41,16.70
2021,06,30,05,42,16.60
2021,06,30,05,43,16.70
2021,06,30,05,44,16.70
2021,06,30,05,45,16.70
2021,06,30,05,46,16.70
2021,06,30,05,47,16.70
2021,06,30,05,48,16.70
2021,06,30,05,49,16.70
2021,06,30,05,50,16.70
2021,06,30,05,51,16.70
2021,06,30,05,52,16.70
2021,06,30,05,53,16.70
2021,06,30,05,54,16.70
2021,06,30,05,55,16.70
2021,06,30,05,56,16.70
2021,06,30,05,57,16.70
2021,06,30,05,58,16.70
2021,06,30,05,59,16.70
2021,06,30,06,00,16.80
2021,06,30,06,01,16.80
2021,06,30,06,02,16.80
2021,06,30,06,03,16.80
2021,06,30,06,04,16.80
2021,06,30,06,05,16.80
2021,06,30,06,06,16.80
2021,06,30,06,07,16.90
2021,06,30,06,08,16.90
2021,06,30,06,09,16.90
2021,06,30,06,10,16.90
2021,06,30,06,11,16.90
2021,06,30,06,12,16.90
2021,06,30,06,13,16.90
2021,06,30,06,14,16.90
2021,06,30,06,15,16.90
2021,06,30,06,16,16.90
2021,06,30,06,17,16.90
2021,06,30,06,18,16.90
2021,06,30,06,19,16.90
2021,06,30,06,20,16.90
2021,06,30,06,21,16.90
2021,06,30,06,22,16.90
2021,06,30,06,23,16.90
2021,06,30,06,24,16.90
2021,06,30,06,25,17.00
2021,06,30,06,26,17.00
2021,06,30,06,27,17.00
2021,06,30,06,28,17.00
2021,06,30,06,29,17.00
2021,06,30,06,30,17.10
2021,06,30,06,31,17.10
2021,06,30,06,32,17.10
2021,06,30,06,33,17.10
2021,06,30,06,34,17.10
2021,06,30,06,35,17.10
2021,06,30,06,36,17.10
2021,06,30,06,37,17.20
2021,06,30,06,38,17.20
2021,06,30,06,39,17.20
2021,06,30,06,40,17.20
2021,06,30,06,41,17.20
2021,06,30,06,42,17.20
2021,06,30,06,43,17.30
2021,06,30,06,44,17.30
2021,06,30,06,45,17.30
2021,06,30,06,46,17.30
2021,06,30,06,47,17.30
2021,06,30,06,48,17.40
2021,06,30,06,49,17.40
2021,06,30,06,50,17.40
2021,06,30,06,51,17.40
2021,06,30,06,52,17.40
2021,06,30,06,53,17.40
2021,06,30,06,54,17.40
2021,06,30,06,55,17.40
2021,06,30,06,56,17.40
2021,06,30,06,57,17.50
2021,06,30,06,58,17.50
2021,06,30,06,59,17.50
2021,06,30,07,00,17.50
2021,06,30,07,01,17.60
2021,06,30,07,02,17.60
2021,06,30,07,03,17.60
2021,06,30,07,04,17.60
2021,06,30,07,05,17.60
2021,06,30,07,06,17.70
2021,06,30,07,07,17.70
2021,06,30,07,08,17.70
2021,06,30,07,09,17.80
2021,06,30,07,10,17.80
2021,06,30,07,11,17.80
2021,06,30,07,12,17.80
2021,06,30,07,13,17.80
2021,06,30,07,14,17.90
2021,06,30,07,15,17.90
2021,06,30,07,16,17.90
2021,06,30,07,17,17.90
2021,06,30,07,18,18.00
2021,06,30,07,19,18.00
2021,06,30,07,20,18.00
2021,06,30,07,21,18.10
2021,06,30,07,22,18.10
2021,06,30,07,23,18.10
2021,06,30,07,24,18.10
2021,06,30,07,25,18.20
2021,06,30,07,26,18.20
2021,06,30,07,27,18.20
2021,06,30,07,28,18.20
2021,06,30,07,29,18.20
2021,06,30,07,30,18.30
2021,06,30,07,31,18.30
2021,06,30,07,32,18.30
2021,06,30,07,33,18.30
2021,06,30,07,34,18.30
2021,06,30,07,35,18.30
2021,06,30,07,36,18.40
2021,06,30,07,37,18.40
2021,06,30,07,38,18.40
2021,06,30,07,39,18.40
2021,06,30,07,40,18.40
2021,06,30,07,41,18.40
2021,06,30,07,42,18.50
2021,06,30,07,43,18.50
2021,06,30,07,44,18.60
2021,06,30,07,45,18.60
2021,06,30,07,46,18.60
2021,06,30,07,47,18.60
2021,06,30,07,48,18.70
2021,06,30,07,49,18.70
2021,06,30,07,50,18.70
2021,06,30,07,51,18.70
2021,06,30,07,52,18.70
2021,06,30,07,53,18.70
2021,06,30,07,54,18.70
2021,06,30,07,55,18.70
2021,06,30,07,56,18.70
2021,06,30,07,57,18.70
2021,06,30,07,58,18.80
2021,06,30,07,59,18.80
2021,06,30,08,00,18.90
2021,06,30,08,01,18.90
2021,06,30,08,02,19.00
2021,06,30,08,03,19.00
2021,06,30,08,04,19.00
2021,06,30,08,05,19.00
2021,06,30,08,06,19.10
2021,06,30,08,07,19.10
2021,06,30,08,08,19.20
2021,06,30,08,09,19.20
2021,06,30,08,10,19.20
2021,06,30,08,11,19.20
2021,06,30,08,12,19.20
2021,06,30,08,13,19.20
2021,06,30,08,14,19.20
2021,06,30,08,15,19.30
2021,06,30,08,16,19.30
2021,06,30,08,17,19.40
2021,06,30,08,18,19.40
2021,06,30,08,19,19.50
2021,06,30,08,20,19.50
2021,06,30,08,21,19.60
2021,06,30,08,22,19.60
2021,06,30,08,23,19.60
2021,06,30,08,24,19.60
2021,06,30,08,25,19.60
2021,06,30,08,26,19.60
2021,06,30,08,27,19.70
2021,06,30,08,28,19.70
2021,06,30,08,29,19.70
2021,06,30,08,30,19.70
2021,06,30,08,31,19.70
2021,06,30,08,32,19.80
2021,06,30,08,33,19.80
2021,06,30,08,34,19.80
2021,06,30,08,35,19.90
2021,06,30,08,36,19.90
2021,06,30,08,37,20.00
2021,06,30,08,38,20.10
2021,06,30,08,39,20.10
2021,06,30,08,40,20.10
2021,06,30,08,41,20.20
2021,06,30,08,42,20.20
2021,06,30,08,43,20.30
2021,06,30,08,44,20.30
2021,06,30,08,45,20.30
2021,06,30,08,46,20.30
2021,06,30,08,47,20.30
2021,06,30,08,48,20.30
2021,06,30,08,49,20.20
2021,06,30,08,50,20.20
2021,06,30,08,51,20.20
2021,06,30,08,52,20.20
2021,06,30,08,53,20.20
2021,06,30,08,54,20.20
2021,06,30,08,55,20.20
2021,06,30,08,56,20.20
2021,06,30,08,57,20.20
2021,06,30,08,58,20.20
2021,06,30,08,59,20.20
2021,06,30,09,00,20.20
2021,06,30,09,01,20.20
2021,06,30,09,02,20.20
2021,06,30,09,03,20.30
2021,06,30,09,04,20.30
2021,06,30,09,05,20.30
2021,06,30,09,06,20.30
2021,06,30,09,07,20.30
2021,06,30,09,08,20.30
2021,06,30,09,09,20.40
2021,06,30,09,10,20.40
2021,06,30,09,11,20.50
2021,06,30,09,12,20.50
2021,06,30,09,13,20.50
2021,06,30,09,14,20.40
2021,06,30,09,15,20.50
2021,06,30,09,16,20.50
2021,06,30,09,17,20.60
2021,06,30,09,18,20.60
2021,06,30,09,19,20.60
2021,06,30,09,20,20.60
2021,06,30,09,21,20.60
2021,06,30,09,22,20.60
2021,06,30,09,23,20.60
2021,06,30,09,24,20.60
2021,06,30,09,25,20.60
2021,06,30,09,26,20.70
2021,06,30,09,27,20.70
2021,06,30,09,28,20.70
2021,06,30,09,29,20.70
2021,06,30,09,30,20.80
2021,06,30,09,31,20.90
2021,06,30,09,32,20.90
2021,06,30,09,33,20.90
2021,06,30,09,34,20.90
2021,06,30,09,35,20.90
2021,06,30,09,36,20.90
2021,06,30,09,37,20.90
2021,06,30,09,38,20.90
2021,06,30,09,39,21.00
2021,06,30,09,40,21.00
2021,06,30,09,41,21.00
2021,06,30,09,42,21.00
2021,06,30,09,43,21.10
2021,06,30,09,44,21.00
2021,06,30,09,45,21.00
2021,06,30,09,46,21.00
2021,06,30,09,47,21.10
2021,06,30,09,48,21.20
2021,06,30,09,49,21.20
2021,06,30,09,50,21.20
2021,06,30,09,51,21.20
2021,06,30,09,52,21.20
2021,06,30,09,53,21.20
2021,06,30,09,54,21.20
2021,06,30,09,55,21.20
2021,06,30,09,56,21.20
2021,06,30,09,57,21.30
2021,06,30,09,58,21.30
2021,06,30,09,59,21.30
2021,06,30,10,00,21.30
2021,06,30,10,01,21.30
2021,06,30,10,02,21.30
2021,06,30,10,03,21.30
2021,06,30,10,04,21.30
2021,06,30,10,05,21.40
2021,06,30,10,06,21.40
2021,06,30,10,07,21.40
2021,06,30,10,08,21.40
2021,06,30,10,09,21.40
2021,06,30,10,10,21.40
2021,06,30,10,11,21.40
2021,06,30,10,12,21.50
2021,06,30,10,13,21.60
2021,06,30,10,14,21.60
2021,06,30,10,15,21.60
2021,06,30,10,16,21.60
2021,06,30,10,17,21.60
2021,06,30,10,18,21.60
2021,06,30,10,19,21.60
2021,06,30,10,20,21.60
2021,06,30,10,21,21.60
2021,06,30,10,22,21.60
2021,06,30,10,23,21.50
2021,06,30,10,24,21.50
2021,06,30,10,25,21.40
2021,06,30,10,26,21.30
2021,06,30,10,27,21.30
2021,06,30,10,28,21.20
2021,06,30,10,29,21.20
2021,06,30,10,30,21.20
2021,06,30,10,31,21.20
2021,06,30,10,32,21.20
2021,06,30,10,33,21.30
2021,06,30,10,34,21.20
2021,06,30,10,35,21.20
2021,06,30,10,36,21.30
2021,06,30,10,37,21.30
2021,06,30,10,38,21.30
2021,06,30,10,39,21.20
2021,06,30,10,40,21.20
2021,06,30,10,41,21.10
2021,06,30,10,42,21.00
2021,06,30,10,43,21.00
2021,06,30,10,44,21.10
2021,06,30,10,45,21.10
2021,06,30,10,46,21.10
2021,06,30,10,47,21.10
2021,06,30,10,48,21.00
2021,06,30,10,49,21.00
2021,06,30,10,50,20.90
2021,06,30,10,51,21.00
2021,06,30,10,52,20.90
2021,06,30,10,53,21.00
2021,06,30,10,54,21.00
2021,06,30,10,55,21.00
2021,06,30,10,56,21.10
2021,06,30,10,57,21.20
2021,06,30,10,58,21.20
2021,06,30,10,59,21.20
2021,06,30,11,00,21.20
2021,06,30,11,01,21.30
2021,06,30,11,02,21.30
2021,06,30,11,03,21.40
2021,06,30,11,04,21.30
2021,06,30,11,05,21.30
2021,06,30,11,06,21.30
2021,06,30,11,07,21.20
2021,06,30,11,08,21.10
2021,06,30,11,09,21.10
2021,06,30,11,10,21.10
2021,06,30,11,11,21.00
2021,06,30,11,12,21.00
2021,06,30,11,13,21.10
2021,06,30,11,14,21.10
2021,06,30,11,15,21.00
2021,06,30,11,16,21.00
2021,06,30,11,17,20.90
2021,06,30,11,18,20.80
2021,06,30,11,19,20.80
2021,06,30,11,20,20.70
2021,06,30,11,21,20.60
2021,06,30,11,22,20.60
2021,06,30,11,23,20.60
2021,06,30,11,24,20.50
2021,06,30,11,25,20.50
2021,06,30,11,26,20.50
2021,06,30,11,27,20.50
2021,06,30,11,28,20.50
2021,06,30,11,29,20.50
2021,06,30,11,30,20.40
2021,06,30,11,31,20.50
2021,06,30,11,32,20.50
2021,06,30,11,33,20.60
2021,06,30,11,34,20.60
2021,06,30,11,35,20.50
2021,06,30,11,36,20.50
2021,06,30,11,37,20.40
2021,06,30,11,38,20.40
2021,06,30,11,39,20.40
2021,06,30,11,40,20.30
2021,06,30,11,41,20.30
2021,06,30,11,42,20.30
2021,06,30,11,43,20.20
2021,06,30,11,44,20.10
2021,06,30,11,45,20.10
2021,06,30,11,46,20.10
2021,06,30,11,47,20.10
2021,06,30,11,48,20.00
2021,06,30,11,49,19.90
2021,06,30,11,50,19.80
2021,06,30,11,51,19.70
2021,06,30,11,52,19.60
2021,06,30,11,53,19.50
2021,06,30,11,54,19.50
2021,06,30,11,55,19.50
2021,06,30,11,56,19.50
2021,06,30,11,57,19.50
2021,06,30,11,58,19.50
2021,06,30,11,59,19.50
2021,06,30,12,00,19.50
2021,06,30,12,01,19.40
2021,06,30,12,02,19.20
2021,06,30,12,03,19.20
2021,06,30,12,04,19.00
2021,06,30,12,05,18.90
2021,06,30,12,06,18.80
2021,06,30,12,07,18.80
2021,06,30,12,08,18.70
2021,06,30,12,09,18.80
2021,06,30,12,10,18.80
2021,06,30,12,11,18.80
2021,06,30,12,12,18.90
2021,06,30,12,13,18.80
2021,06,30,12,14,18.90
2021,06,30,12,15,18.80
2021,06,30,12,16,18.80
2021,06,30,12,17,18.80
2021,06,30,12,18,18.80
2021,06,30,12,19,18.80
2021,06,30,12,20,18.80
2021,06,30,12,21,18.80
2021,06,30,12,22,18.90
2021,06,30,12,23,18.90
2021,06,30,12,24,18.90
2021,06,30,12,25,18.90
2021,06,30,12,26,18.90
2021,06,30,12,27,19.00
2021,06,30,12,28,19.00
2021,06,30,12,29,19.00
2021,06,30,12,30,19.10
2021,06,30,12,31,19.10
2021,06,30,12,32,19.10
2021,06,30,12,33,19.10
2021,06,30,12,34,19.10
2021,06,30,12,35,19.10
2021,06,30,12,36,19.10
2021,06,30,12,37,19.00
2021,06,30,12,38,19.00
2021,06,30,12,39,19.00
2021,06,30,12,40,18.90
2021,06,30,12,41,18.90
2021,06,30,12,42,18.90
2021,06,30,12,43,18.90
2021,06,30,12,44,18.80
2021,06,30,12,45,18.90
2021,06,30,12,46,19.00
2021,06,30,12,47,19.10
2021,06,30,12,48,19.10
2021,06,30,12,49,19.20
2021,06,30,12,50,19.20
2021,06,30,12,51,19.20
2021,06,30,12,52,19.30
2021,06,30,12,53,19.30
2021,06,30,12,54,19.40
2021,06,30,12,55,19.40
2021,06,30,12,56,19.40
2021,06,30,12,57,19.50
2021,06,30,12,58,19.60
2021,06,30,12,59,19.60
2021,06,30,13,00,19.70
2021,06,30,13,01,19.80
2021,06,30,13,02,19.90
2021,06,30,13,03,19.90
2021,06,30,13,04,20.00
2021,06,30,13,05,20.10
2021,06,30,13,06,20.20
2021,06,30,13,07,20.20
2021,06,30,13,08,20.20
2021,06,30,13,09,20.20
2021,06,30,13,10,20.20
2021,06,30,13,11,20.30
2021,06,30,13,12,20.40
2021,06,30,13,13,20.40
2021,06,30,13,14,20.40
2021,06,30,13,15,20.50
2021,06,30,13,16,20.50
2021,06,30,13,17,20.50
2021,06,30,13,18,20.40
2021,06,30,13,19,20.40
2021,06,30,13,20,20.40
2021,06,30,13,21,20.40
2021,06,30,13,22,20.40
2021,06,30,13,23,20.40
2021,06,30,13,24,20.40
2021,06,30,13,25,20.40
2021,06,30,13,26,20.30
2021,06,30,13,27,20.30
2021,06,30,13,28,20.40
2021,06,30,13,29,20.40
2021,06,30,13,30,20.40
2021,06,30,13,31,20.30
2021,06,30,13,32,20.30
2021,06,30,13,33,20.30
2021,06,30,13,34,20.30
2021,06,30,13,35,20.30
2021,06,30,13,36,20.40
2021,06,30,13,37,20.40
2021,06,30,13,38,20.40
2021,06,30,13,39,20.50
2021,06,30,13,40,20.50
2021,06,30,13,41,20.40
2021,06,30,13,42,20.20
2021,06,30,13,43,20.20
2021,06,30,13,44,20.10
2021,06,30,13,45,20.00
2021,06,30,13,46,19.90
2021,06,30,13,47,19.90
2021,06,30,13,48,19.90
2021,06,30,13,49,19.90
2021,06,30,13,50,19.90
2021,06,30,13,51,19.90
2021,06,30,13,52,19.90
2021,06,30,13,53,19.90
2021,06,30,13,54,19.90
2021,06,30,13,55,19.90
2021,06,30,13,56,20.00
2021,06,30,13,57,20.00
2021,06,30,13,58,20.00
2021,06,30,13,59,20.00
2021,06,30,14,00,19.90
2021,06,30,14,01,19.90
2021,06,30,14,02,20.00
2021,06,30,14,03,20.00
2021,06,30,14,04,20.00
2021,06,30,14,05,20.10
2021,06,30,14,06,20.20
2021,06,30,14,07,20.20
2021,06,30,14,08,20.30
2021,06,30,14,09,20.40
2021,06,30,14,10,20.50
2021,06,30,14,11,20.50
2021,06,30,14,12,20.50
2021,06,30,14,13,20.50
2021,06,30,14,14,20.50
2021,06,30,14,15,20.50
2021,06,30,14,16,20.60
2021,06,30,14,17,20.60
2021,06,30,14,18,20.60
2021,06,30,14,19,20.60
2021,06,30,14,20,20.70
2021,06,30,14,21,20.70
2021,06,30,14,22,20.70
2021,06,30,14,23,20.70
2021,06,30,14,24,20.80
2021,06,30,14,25,20.80
2021,06,30,14,26,20.80
2021,06,30,14,27,20.80
2021,06,30,14,28,20.90
2021,06,30,14,29,20.90
2021,06,30,14,30,20.80
2021,06,30,14,31,20.90
2021,06,30,14,32,20.90
2021,06,30,14,33,21.00
2021,06,30,14,34,21.00
2021,06,30,14,35,21.10
2021,06,30,14,36,21.30
2021,06,30,14,37,21.30
2021,06,30,14,38,21.40
2021,06,30,14,39,21.50
2021,06,30,14,40,21.60
2021,06,30,14,41,21.70
2021,06,30,14,42,21.70
2021,06,30,14,43,21.80
2021,06,30,14,44,21.80
2021,06,30,14,45,21.90
2021,06,30,14,46,22.00
2021,06,30,14,47,22.10
2021,06,30,14,48,22.20
2021,06,30,14,49,22.20
2021,06,30,14,50,22.40
2021,06,30,14,51,22.50
2021,06,30,14,52,22.60
2021,06,30,14,53,22.70
2021,06,30,14,54,22.80
2021,06,30,14,55,22.90
2021,06,30,14,56,22.90
2021,06,30,14,57,22.90
2021,06,30,14,58,22.90
2021,06,30,14,59,22.90
2021,06,30,15,00,22.90
2021,06,30,15,01,22.90
2021,06,30,15,02,22.90
2021,06,30,15,03,22.90
2021,06,30,15,04,22.80
2021,06,30,15,05,22.80
2021,06,30,15,06,22.70
2021,06,30,15,07,22.70
2021,06,30,15,08,22.70
2021,06,30,15,09,22.60
2021,06,30,15,10,22.60
2021,06,30,15,11,22.70
2021,06,30,15,12,22.60
2021,06,30,15,13,22.60
2021,06,30,15,14,22.60
2021,06,30,15,15,22.60
2021,06,30,15,16,22.50
2021,06,30,15,17,22.50
2021,06,30,15,18,22.60
2021,06,30,15,19,22.60
2021,06,30,15,20,22.50
2021,06,30,15,21,22.60
2021,06,30,15,22,22.60
2021,06,30,15,23,22.60
2021,06,30,15,24,22.60
2021,06,30,15,25,22.60
2021,06,30,15,26,22.60
2021,06,30,15,27,22.60
2021,06,30,15,28,22.60
2021,06,30,15,29,22.60
2021,06,30,15,30,22.50
2021,06,30,15,31,22.50
2021,06,30,15,32,22.50
2021,06,30,15,33,22.60
2021,06,30,15,34,22.60
2021,06,30,15,35,22.70
2021,06,30,15,36,22.80
2021,06,30,15,37,22.90
2021,06,30,15,38,23.00
2021,06,30,15,39,23.10
2021,06,30,15,40,23.10
2021,06,30,15,41,23.20
2021,06,30,15,42,23.20
2021,06,30,15,43,23.20
2021,06,30,15,44,23.20
2021,06,30,15,45,23.20
2021,06,30,15,46,23.20
2021,06,30,15,47,23.20
2021,06,30,15,48,23.20
2021,06,30,15,49,23.20
2021,06,30,15,50,23.20
2021,06,30,15,51,23.20
2021,06,30,15,52,23.20
2021,06,30,15,53,23.20
2021,06,30,15,54,23.20
2021,06,30,15,55,23.20
2021,06,30,15,56,23.10
2021,06,30,15,57,23.10
2021,06,30,15,58,23.10
2021,06,30,15,59,23.10
2021,06,30,16,00,23.10
2021,06,30,16,01,23.00
2021,06,30,16,02,23.00
2021,06,30,16,03,22.90
2021,06,30,16,04,23.00
2021,06,30,16,05,23.00
2021,06,30,16,06,23.00
2021,06,30,16,07,23.00
2021,06,30,16,08,23.00
2021,06,30,16,09,23.10
2021,06,30,16,10,23.10
2021,06,30,16,11,23.20
2021,06,30,16,12,23.20
2021,06,30,16,13,23.10
2021,06,30,16,14,23.10
2021,06,30,16,15,23.10
2021,06,30,16,16,23.10
2021,06,30,16,17,23.20
2021,06,30,16,18,23.30
2021,06,30,16,19,23.30
2021,06,30,16,20,23.40
2021,06,30,16,21,23.30
2021,06,30,16,22,23.30
2021,06,30,16,23,23.20
2021,06,30,16,24,23.20
2021,06,30,16,25,23.20
2021,06,30,16,26,23.20
2021,06,30,16,27,23.10
2021,06,30,16,28,23.10
2021,06,30,16,29,23.10
2021,06,30,16,30,23.20
2021,06,30,16,31,23.30
2021,06,30,16,32,23.30
2021,06,30,16,33,23.20
2021,06,30,16,34,23.20
2021,06,30,16,35,23.10
2021,06,30,16,36,23.00
2021,06,30,16,37,23.00
2021,06,30,16,38,23.10
2021,06,30,16,39,23.10
2021,06,30,16,40,23.10
2021,06,30,16,41,23.10
2021,06,30,16,42,23.10
2021,06,30,16,43,23.20
2021,06,30,16,44,23.20
2021,06,30,16,45,23.20
2021,06,30,16,46,23.20
2021,06,30,16,47,23.20
2021,06,30,16,48,23.20
2021,06,30,16,49,23.10
2021,06,30,16,50,23.20
2021,06,30,16,51,23.20
2021,06,30,16,52,23.20
2021,06,30,16,53,23.20
2021,06,30,16,54,23.20
2021,06,30,16,55,23.20
2021,06,30,16,56,23.20
2021,06,30,16,57,23.20
2021,06,30,16,58,23.20
2021,06,30,16,59,23.20
2021,06,30,17,00,23.30
2021,06,30,17,01,23.40
2021,06,30,17,02,23.40
2021,06,30,17,03,23.30
2021,06,30,17,04,23.20
2021,06,30,17,05,23.20
2021,06,30,17,06,23.20
2021,06,30,17,07,23.30
2021,06,30,17,08,23.30
2021,06,30,17,09,23.40
2021,06,30,17,10,23.40
2021,06,30,17,11,23.60
2021,06,30,17,12,23.60
2021,06,30,17,13,23.60
2021,06,30,17,14,23.60
2021,06,30,17,15,23.50
2021,06,30,17,16,23.50
2021,06,30,17,17,23.40
2021,06,30,17,18,23.40
2021,06,30,17,19,23.50